• In Uzbekistan
  • List of Countries
  • For 7 days
  • Water Temperature
  • Satellite Maps
  • Weather Map
  • Weather Widgets
  • user-avatar
    Login

    Hourly Weather Mohale's Hoek

    Today, 17 October, Tuesday

    Time Temperature Precipitation Wind Pressure Humidity
    00:00 +8°C° 0 mm 4 mps 628 mmHg 28%
    01:00 +7°C° 0 mm 4 mps 627 mmHg 30%
    02:00 +7°C° 0 mm 3 mps 627 mmHg 33%
    03:00 +7°C° 0 mm 3 mps 627 mmHg 36%
    04:00 +5°C° 0 mm 3 mps 627 mmHg 39%
    05:00 +4°C° 0 mm 3 mps 627 mmHg 42%
    06:00 +5°C° 0 mm 4 mps 627 mmHg 42%
    07:00 +6°C° 0 mm 5 mps 628 mmHg 42%
    08:00 +7°C° 0 mm 5 mps 628 mmHg 42%
    09:00 +8°C° 0 mm 6 mps 628 mmHg 39%
    10:00 +9°C° 0 mm 6 mps 629 mmHg 36%
    11:00 +10°C° 0 mm 7 mps 629 mmHg 33%
    12:00 +11°C° 0 mm 7 mps 629 mmHg 30%
    13:00 +12°C° 0 mm 8 mps 629 mmHg 27%
    14:00 +13°C° 0 mm 8 mps 629 mmHg 24%
    15:00 +14°C° 0 mm 7 mps 629 mmHg 24%
    16:00 +14°C° 0 mm 6 mps 630 mmHg 25%
    17:00 +14°C° 0 mm 6 mps 630 mmHg 25%
    18:00 +12°C° 0 mm 4 mps 630 mmHg 28%
    19:00 +11°C° 0 mm 3 mps 630 mmHg 31%
    20:00 +10°C° 0 mm 2 mps 630 mmHg 34%
    21:00 +10°C° 0 mm 1 mps 630 mmHg 36%
    22:00 +10°C° 0 mm 1 mps 630 mmHg 38%
    23:00 +9°C° 0 mm 1 mps 630 mmHg 39%

    Tomorrow, 18 October, Wednesday

    Time Temperature Precipitation Wind Pressure Humidity
    00:00 +8°C° 0 mm 1 mps 630 mmHg 41%
    01:00 +8°C° 0 mm 1 mps 630 mmHg 43%
    02:00 +7°C° 0 mm 1 mps 629 mmHg 44%
    03:00 +7°C° 0 mm 1 mps 629 mmHg 45%
    04:00 +7°C° 0 mm 1 mps 629 mmHg 45%
    05:00 +6°C° 0 mm 1 mps 629 mmHg 46%
    06:00 +9°C° 0 mm 1 mps 630 mmHg 39%
    07:00 +11°C° 0 mm 1 mps 630 mmHg 33%
    08:00 +13°C° 0 mm 1 mps 631 mmHg 27%
    09:00 +15°C° 0 mm 1 mps 631 mmHg 23%
    10:00 +17°C° 0 mm 2 mps 631 mmHg 19%
    11:00 +19°C° 0 mm 2 mps 631 mmHg 15%
    12:00 +20°C° 0 mm 2 mps 631 mmHg 14%
    13:00 +22°C° 0 mm 3 mps 631 mmHg 13%
    14:00 +23°C° 0 mm 4 mps 631 mmHg 11%
    15:00 +23°C° 0 mm 4 mps 630 mmHg 12%
    16:00 +25°C° 0 mm 5 mps 630 mmHg 12%
    17:00 +25°C° 0 mm 5 mps 630 mmHg 12%
    18:00 +22°C° 0 mm 4 mps 629 mmHg 14%
    19:00 +20°C° 0 mm 4 mps 629 mmHg 16%
    20:00 +19°C° 0 mm 3 mps 629 mmHg 18%
    21:00 +18°C° 0 mm 3 mps 628 mmHg 19%
    22:00 +17°C° 0 mm 3 mps 628 mmHg 19%
    23:00 +17°C° 0 mm 3 mps 628 mmHg 20%

    Day after tomorrow, 19 October, Thursday

    Time Temperature Precipitation Wind Pressure Humidity
    00:00 +16°C° 0 mm 3 mps 628 mmHg 20%
    01:00 +16°C° 0 mm 3 mps 627 mmHg 20%
    02:00 +16°C° 0 mm 3 mps 627 mmHg 19%
    03:00 +14°C° 0 mm 3 mps 626 mmHg 20%
    04:00 +14°C° 0 mm 3 mps 626 mmHg 20%
    05:00 +14°C° 0 mm 3 mps 626 mmHg 20%
    06:00 +17°C° 0 mm 4 mps 627 mmHg 19%
    07:00 +19°C° 0 mm 6 mps 628 mmHg 17%
    08:00 +21°C° 0 mm 7 mps 629 mmHg 15%
    09:00 +22°C° 0 mm 8 mps 630 mmHg 15%
    10:00 +24°C° 0 mm 8 mps 630 mmHg 15%
    11:00 +26°C° 0 mm 8 mps 631 mmHg 15%
    12:00 +26°C° 0 mm 9 mps 630 mmHg 14%
    13:00 +27°C° 0 mm 9 mps 630 mmHg 14%
    14:00 +27°C° 0 mm 9 mps 630 mmHg 13%
    15:00 +26°C° 0 mm 9 mps 630 mmHg 14%
    16:00 +26°C° 0 mm 8 mps 630 mmHg 15%
    17:00 +24°C° 0 mm 7 mps 630 mmHg 16%
    18:00 +22°C° 0 mm 6 mps 630 mmHg 19%
    19:00 +20°C° 0 mm 4 mps 631 mmHg 22%
    20:00 +18°C° 0 mm 3 mps 631 mmHg 25%
    21:00 +17°C° 0 mm 2 mps 631 mmHg 28%
    22:00 +16°C° 0 mm 2 mps 631 mmHg 31%
    23:00 +15°C° 0 mm 1 mps 631 mmHg 34%

    20 October, Friday

    Time Temperature Precipitation Wind Pressure Humidity
    00:00 +14°C° 0 mm 1 mps 631 mmHg 38%
    01:00 +13°C° 0 mm 1 mps 630 mmHg 41%
    02:00 +13°C° 0 mm 1 mps 630 mmHg 45%
    03:00 +12°C° 0 mm 1 mps 630 mmHg 46%
    04:00 +12°C° 0 mm 1 mps 630 mmHg 48%
    05:00 +11°C° 0 mm 1 mps 630 mmHg 49%
    06:00 +13°C° 0 mm 1 mps 631 mmHg 42%
    07:00 +15°C° 0 mm 1 mps 632 mmHg 35%
    08:00 +17°C° 0 mm 2 mps 633 mmHg 28%
    09:00 +19°C° 0 mm 2 mps 633 mmHg 23%
    10:00 +20°C° 0 mm 3 mps 633 mmHg 19%
    11:00 +22°C° 0 mm 4 mps 633 mmHg 15%
    12:00 +23°C° 0 mm 5 mps 633 mmHg 13%
    13:00 +25°C° 0 mm 5 mps 633 mmHg 12%
    14:00 +26°C° 0 mm 6 mps 633 mmHg 10%
    15:00 +26°C° 0 mm 7 mps 633 mmHg 10%
    16:00 +26°C° 0 mm 7 mps 633 mmHg 10%
    17:00 +24°C° 0 mm 7 mps 633 mmHg 10%
    18:00 +22°C° 0 mm 5 mps 633 mmHg 12%
    19:00 +20°C° 0 mm 4 mps 633 mmHg 14%
    20:00 +18°C° 0 mm 2 mps 633 mmHg 16%
    21:00 +17°C° 0 mm 2 mps 633 mmHg 18%
    22:00 +16°C° 0 mm 1 mps 633 mmHg 19%
    23:00 +15°C° 0 mm 1 mps 632 mmHg 21%

    21 October, Saturday

    Time Temperature Precipitation Wind Pressure Humidity
    00:00 +15°C° 0 mm 1 mps 632 mmHg 23%
    01:00 +14°C° 0 mm 1 mps 632 mmHg 25%
    02:00 +13°C° 0 mm 1 mps 632 mmHg 27%
    03:00 +13°C° 0 mm 1 mps 632 mmHg 27%
    04:00 +13°C° 0 mm 1 mps 632 mmHg 28%
    05:00 +12°C° 0 mm 1 mps 632 mmHg 29%
    06:00 +15°C° 0 mm 1 mps 633 mmHg 25%
    07:00 +18°C° 0 mm 1 mps 635 mmHg 21%
    08:00 +21°C° 0 mm 1 mps 636 mmHg 18%
    09:00 +21°C° 0 mm 2 mps 636 mmHg 16%
    10:00 +24°C° 0 mm 2 mps 636 mmHg 14%
    11:00 +26°C° 0 mm 3 mps 637 mmHg 13%
    12:00 +27°C° 0 mm 3 mps 636 mmHg 12%
    13:00 +28°C° 0 mm 4 mps 636 mmHg 11%
    14:00 +28°C° 0 mm 4 mps 636 mmHg 10%
    15:00 +28°C° 0 mm 4 mps 636 mmHg 10%
    16:00 +28°C° 0 mm 4 mps 636 mmHg 11%
    17:00 +28°C° 0 mm 3 mps 636 mmHg 11%
    18:00 +26°C° 0 mm 3 mps 635 mmHg 14%
    19:00 +24°C° 0 mm 3 mps 635 mmHg 17%
    20:00 +21°C° 0 mm 2 mps 634 mmHg 20%
    21:00 +20°C° 0 mm 2 mps 634 mmHg 27%
    22:00 +19°C° 0 mm 2 mps 634 mmHg 33%
    23:00 +18°C° 0 mm 2 mps 634 mmHg 40%

    22 October, Sunday

    Time Temperature Precipitation Wind Pressure Humidity
    00:00 +18°C° 0 mm 2 mps 634 mmHg 45%
    01:00 +18°C° 0 mm 2 mps 634 mmHg 50%
    02:00 +17°C° 0 mm 2 mps 634 mmHg 55%
    03:00 +17°C° 0.1 mm 2 mps 634 mmHg 59%
    04:00 +16°C° 0.1 mm 2 mps 634 mmHg 64%
    05:00 +16°C° 0.1 mm 1 mps 633 mmHg 68%
    06:00 +18°C° 0.4 mm 3 mps 634 mmHg 64%
    07:00 +19°C° 0.4 mm 4 mps 634 mmHg 59%
    08:00 +21°C° 0.4 mm 5 mps 635 mmHg 55%
    09:00 +22°C° 1 mm 7 mps 635 mmHg 53%
    10:00 +23°C° 1 mm 8 mps 635 mmHg 52%
    11:00 +24°C° 1 mm 9 mps 635 mmHg 51%
    12:00 +24°C° 1 mm 8 mps 634 mmHg 48%
    13:00 +26°C° 1 mm 8 mps 634 mmHg 46%
    14:00 +26°C° 1 mm 7 mps 634 mmHg 44%
    15:00 +26°C° 0.5 mm 6 mps 633 mmHg 45%
    16:00 +26°C° 0.5 mm 6 mps 633 mmHg 46%
    17:00 +26°C° 0.5 mm 5 mps 633 mmHg 47%
    18:00 +23°C° 0.3 mm 4 mps 633 mmHg 49%
    19:00 +22°C° 0.3 mm 3 mps 633 mmHg 52%
    20:00 +21°C° 0.3 mm 1 mps 633 mmHg 54%
    21:00 +20°C° 0.2 mm 2 mps 633 mmHg 58%
    22:00 +19°C° 0.2 mm 2 mps 633 mmHg 61%
    23:00 +19°C° 0.2 mm 2 mps 634 mmHg 64%
    Show more